This is the latest recevied weather packets stored in our database for station/object NE8U. If no packets are shown the sender has not sent any weather packets the latest 10 day(s).
| Time | Temp. | Humidity | Pressure | Rain* | Wind** | Luminosity | Snow |
|---|---|---|---|---|---|---|---|
| 1777575530 | 30° C | 12% | 1010.9 hPa | 0 mm | - | 608 W/m² | - |
| 1777575225 | 30° C | 12% | 1011.1 hPa | 0 mm | - | 1005 W/m² | - |
| 1777574921 | 28.89° C | 12% | 1011.2 hPa | 0 mm | - | 734 W/m² | - |
| 1777574618 | 29.44° C | 12% | 1011.3 hPa | 0 mm | - | 877 W/m² | - |
| 1777574315 | 28.89° C | 13% | 1011.3 hPa | 0 mm | - | 873 W/m² | - |
| 1777574009 | 28.33° C | 13% | 1011.5 hPa | 0 mm | - | 897 W/m² | - |
| 1777573704 | 28.89° C | 13% | 1011.6 hPa | 0 mm | - | 745 W/m² | - |
| 1777573401 | 28.89° C | 12% | 1011.6 hPa | 0 mm | - | 834 W/m² | - |
| 1777573097 | 27.78° C | 12% | 1011.9 hPa | 0 mm | - | 795 W/m² | - |
| 1777572794 | 28.89° C | 11% | 1012 hPa | 0 mm | - | 778 W/m² | - |
| 1777572489 | 28.89° C | 13% | 1011.7 hPa | 0 mm | - | 775 W/m² | - |
| 1777572185 | 27.78° C | 14% | 1012 hPa | 0 mm | - | 794 W/m² | - |
| 1777571880 | 27.78° C | 14% | 1012 hPa | 0 mm | - | 716 W/m² | - |
| 1777571575 | 27.78° C | 14% | 1012.2 hPa | 0 mm | - | 734 W/m² | - |
| 1777571273 | 27.78° C | 16% | 1012.3 hPa | 0 mm | - | 761 W/m² | - |
| 1777570969 | 27.22° C | 16% | 1012.4 hPa | 0 mm | - | 803 W/m² | - |
| 1777570665 | 27.22° C | 17% | 1012.4 hPa | 0 mm | - | 818 W/m² | - |
| 1777570362 | 27.22° C | 18% | 1012.4 hPa | 0 mm | - | 835 W/m² | - |
| 1777570057 | 26.67° C | 19% | 1012.6 hPa | 0 mm | - | 835 W/m² | - |
| 1777569753 | 26.67° C | 18% | 1012.8 hPa | 0 mm | - | 812 W/m² | - |
| 1777569449 | 26.67° C | 19% | 1012.6 hPa | 0 mm | - | 822 W/m² | - |
| 1777569146 | 26.11° C | 19% | 1012.7 hPa | 0 mm | - | 734 W/m² | - |
| 1777568842 | 26.11° C | 20% | 1012.7 hPa | 0 mm | - | 813 W/m² | - |
| 1777568540 | 25.56° C | 21% | 1012.7 hPa | 0 mm | - | 724 W/m² | - |
| 1777568236 | 26.11° C | 20% | 1012.7 hPa | 0 mm | - | 786 W/m² | - |
* Rain latest hour (hover to see other rain measurements)
** Current wind speed in m/s (hover to see current wind gust speed)